Regional Weather Roundup
Issued by NWS

Home | Current Version | Previous Version | Text Only | Print | Product List | Glossary Off
Versions: 1 2 3 4 5 6 7 8 9 10 11 12 13 14 15 16 17 18 19 20 21 22 23 24 25 26 27 28 29 30 31 32 33 34 35 36 37 38 39 40 41 42 43 44 45 46 47 48 49 50

000
ASUS43 KFSD 250010
RWRSD

WEATHER ROUNDUP FOR SOUTH DAKOTA
NATIONAL WEATHER SERVICE SIOUX FALLS SD
700 PM CDT FRI APR 24 2015

NOTE: "FAIR" INDICATES FEW OR NO CLOUDS BELOW 12,000 FEET WITH NO
SIGNIFICANT WEATHER AND/OR OBSTRUCTIONS TO VISIBILITY.


SDZ001>005-009-010-012>017-250100-
NORTHWEST AND NORTH CENTRAL SOUTH DAKOTA

CITY           SKY/WX    TMP DP  RH WIND       PRES   REMARKS
BUFFALO          N/A     68  32  26 E12       29.51S
FAITH            N/A     68  31  25 NE15      29.55S
MOBRIDGE       SUNNY     70  44  39 NE14      29.53S
$$

SDZ012>016-024>037-041>051-057-063-072>074-250100-
SOUTHWEST AND SOUTH CENTRAL SOUTH DAKOTA

CITY           SKY/WX    TMP DP  RH WIND       PRES   REMARKS
RAPID CTY ARPT PTSUNNY   67  42  40 NW5       29.55F
PIERRE         SUNNY     72  44  36 NE16      29.48R
CUSTER         CLOUDY    50  43  77 N3        29.64F
ELLSWORTH AFB  PTSUNNY   69  30  24 N13       29.55F
PHILIP         PTSUNNY   70  42  36 NE14      29.51R
PINE RIDGE     CLOUDY    56  43  61 NW10      29.56F
SPEARFISH      FAIR      63  36  36 SE10      29.61R
WINNER         FAIR      76  41  28 N8        29.45S
$$

SDZ004>011-016>023-039-040-250100-
NORTHEAST SOUTH DAKOTA

CITY           SKY/WX    TMP DP  RH WIND       PRES   REMARKS
ABERDEEN       CLOUDY    58  48  69 NE17      29.58R
WATERTOWN      PTSUNNY   57  44  62 E17G28    29.58S
BROOKINGS      MOSUNNY   57  46  67 E21       29.59R
SISSETON         N/A     53  44  71 SE18      29.65R
$$

SDZ017-020-022-023-036>040-048>070-250100-
SOUTHEAST SOUTH DAKOTA

CITY           SKY/WX    TMP DP  RH WIND       PRES   REMARKS
SIOUX FALLS    CLOUDY    67  51  56 SE23G35   29.52S
HURON          MOSUNNY   72  50  45 E16       29.47R
CHAMBERLAIN    PTSUNNY   74  42  32 N7        29.45R
MITCHELL       TSTM      64  55  72 NW13G25   29.49R
YANKTON        CLOUDY    72  54  53 S13       29.48R
$$

ABBREVIATIONS USED IN REMARKS
   TC - TEMPERATURE IN CELSIUS
  WCI - WIND CHILL INDEX
   HX - HEAT INDEX
  VSB - VISIBILITY




USA.gov is the U.S. government's official web portal to all federal, state and local government web resources and services.